QPF
0.01 0.02 0.03 0.02 0.02 0.02 0.01 0.02 0.01 0.00 0.00 0.00 0.00 0.00 0.00 0.00 0.00 0.00 0.00 0.00 0.00 0.00 0.00 0.00 0.00 0.01 0.01 0.01 0.01 0.01 0.01 0.00 0.00 0.01 0.01 0.02 0.02 0.02 0.02 0.01 0.01 0.02 0.03 0.03
0.02 0.02 0.01 0.01 0.01 0.01 0.02 0.02 0.02 0.01 0.00 0.00 0.00 0.00 0.00 0.00 0.00 0.00 0.00 0.00 0.00 0.00 0.00 0.00 0.00 0.01 0.01 0.01 0.01 0.01 0.01 0.01 0.01 0.01 0.00 0.01 0.01 0.01 0.01 0.01 0.01 0.02 0.02 0.02
0.02 0.02 0.01 0.01 0.01 0.01 0.01 0.01 0.01 0.01 0.01 0.01 0.01 0.00 0.00 0.00 0.00 0.00 0.00 0.00 0.00 0.00 0.00 0.00 0.00 0.00 0.00 0.00 0.01 0.01 0.01 0.01 0.01 0.01 0.01 0.01 0.01 0.02 0.02 0.01 0.01 0.01 0.02 0.02
0.01 0.01 0.01 0.01 0.01 0.01 0.01 0.01 0.01 0.01 0.01 0.02 0.01 0.01 0.00 0.00 0.00 0.00 0.00 0.00 0.01 0.01 0.00 0.00 0.00 0.00 0.00 0.00 0.01 0.01 0.01 0.01 0.01 0.01 0.01 0.01 0.01 0.01 0.01 0.01 0.01 0.01 0.02 0.02
0.01 0.01 0.01 0.01 0.01 0.01 0.01 0.01 0.01 0.01 0.01 0.01 0.02 0.02 0.01 0.00 0.00 0.00 0.00 0.00 0.00 0.00 0.01 0.01 0.00 0.00 0.01 0.00 0.00 0.00 0.00 0.00 0.00 0.00 0.01 0.01 0.01 0.01 0.00 0.01 0.01 0.01 0.01 0.02
0.01 0.00 0.01 0.01 0.00 0.01 0.01 0.01 0.02 0.02 0.03 0.03 0.01 0.02 0.01 0.00 0.00 0.00 0.00 0.00 0.00 0.00 0.00 0.01 0.00 0.01 0.01 0.01 0.01 0.00 0.00 0.00 0.00 0.00 0.00 0.01 0.01 0.01 0.01 0.01 0.01 0.01 0.01 0.01
0.01 0.01 0.00 0.00 0.01 0.01 0.01 0.02 0.03 0.04 0.05 0.02 0.00 0.01 0.01 0.00 0.00 0.00 0.01 0.00 0.01 0.00 0.00 0.01 0.00 0.00 0.00 0.01 0.01 0.00 0.00 0.00 0.00 0.00 0.00 0.01 0.01 0.01 0.00 0.00 0.01 0.01 0.01 0.01
0.00 0.01 0.01 0.01 0.01 0.01 0.01 0.02 0.03 0.02 0.01 0.01 0.00 0.01 0.01 0.00 0.00 0.00 0.01 0.01 0.01 0.00 0.00 0.01 0.01 0.01 0.01 0.01 0.01 0.01 0.01 0.00 0.00 0.00 0.00 0.00 0.01 0.01 0.01 0.01 0.01 0.01 0.01 0.01
0.00 0.00 0.00 0.00 0.01 0.01 0.02 0.02 0.01 0.02 0.02 0.01 0.01 0.01 0.00 0.00 0.00 0.00 0.01 0.01 0.01 0.01 0.01 0.01 0.01 0.01 0.01 0.01 0.01 0.01 0.01 0.01 0.01 0.00 0.00 0.01 0.01 0.01 0.01 0.01 0.01 0.01 0.01 0.01
0.01 0.01 0.00 0.00 0.01 0.02 0.02 0.03 0.03 0.03 0.03 0.02 0.01 0.00 0.01 0.00 0.00 0.00 0.01 0.01 0.02 0.02 0.03 0.03 0.02 0.02 0.01 0.01 0.01 0.01 0.02 0.01 0.01 0.01 0.01 0.01 0.01 0.01 0.01 0.01 0.01 0.01 0.00 0.01
0.01 0.02 0.01 0.01 0.01 0.02 0.03 0.03 0.04 0.03 0.02 0.02 0.01 0.00 0.01 0.00 0.00 0.00 0.01 0.01 0.01 0.01 0.01 0.01 0.01 0.01 0.01 0.01 0.01 0.01 0.01 0.01 0.01 0.01 0.01 0.01 0.02 0.02 0.01 0.01 0.01 0.01 0.01 0.01
0.01 0.02 0.01 0.00 0.00 0.01 0.03 0.04 0.04 0.03 0.02 0.01 0.01 0.01 0.00 0.00 0.00 0.00 0.01 0.01 0.01 0.00 0.00 0.00 0.00 0.01 0.01 0.01 0.01 0.01 0.01 0.01 0.02 0.01 0.01 0.01 0.02 0.02 0.03 0.02 0.01 0.01 0.01 0.01
0.03 0.05 0.03 0.01 0.01 0.01 0.02 0.03 0.04 0.04 0.02 0.02 0.02 0.01 0.01 0.00 0.00 0.01 0.02 0.01 0.01 0.00 0.00 0.00 0.01 0.01 0.01 0.01 0.01 0.01 0.01 0.02 0.03 0.03 0.02 0.01 0.02 0.02 0.03 0.02 0.02 0.01 0.01 0.01
0.05 0.06 0.03 0.02 0.01 0.01 0.01 0.01 0.02 0.04 0.04 0.02 0.02 0.02 0.02 0.01 0.01 0.02 0.02 0.01 0.01 0.00 0.00 0.00 0.00 0.00 0.01 0.01 0.01 0.01 0.02 0.02 0.03 0.04 0.03 0.03 0.03 0.02 0.02 0.02 0.01 0.01 0.01 0.01
0.04 0.03 0.02 0.02 0.02 0.02 0.02 0.02 0.01 0.02 0.02 0.02 0.02 0.02 0.02 0.01 0.01 0.02 0.02 0.01 0.01 0.00 0.01 0.01 0.00 0.00 0.01 0.01 0.01 0.01 0.02 0.02 0.02 0.03 0.03 0.03 0.04 0.03 0.03 0.02 0.02 0.02 0.01 0.01
0.03 0.03 0.02 0.02 0.02 0.02 0.02 0.01 0.01 0.01 0.02 0.02 0.02 0.02 0.02 0.01 0.01 0.01 0.01 0.01 0.01 0.01 0.01 0.01 0.00 0.00 0.01 0.01 0.01 0.01 0.02 0.02 0.03 0.03 0.02 0.03 0.04 0.04 0.03 0.02 0.02 0.03 0.03 0.02
0.03 0.03 0.03 0.02 0.01 0.02 0.02 0.02 0.02 0.02 0.02 0.01 0.02 0.03 0.03 0.02 0.01 0.01 0.01 0.01 0.01 0.01 0.01 0.00 0.00 0.01 0.01 0.01 0.01 0.01 0.02 0.02 0.03 0.03 0.03 0.03 0.04 0.04 0.04 0.03 0.03 0.03 0.04 0.03
0.03 0.03 0.05 0.03 0.02 0.02 0.01 0.02 0.02 0.02 0.02 0.02 0.02 0.02 0.02 0.02 0.01 0.01 0.01 0.01 0.01 0.01 0.01 0.00 0.00 0.01 0.01 0.01 0.01 0.01 0.02 0.02 0.03 0.03 0.03 0.04 0.04 0.05 0.06 0.05 0.05 0.05 0.04 0.03
0.02 0.03 0.05 0.04 0.03 0.02 0.01 0.02 0.02 0.02 0.02 0.02 0.01 0.01 0.01 0.01 0.01 0.01 0.01 0.01 0.01 0.01 0.00 0.00 0.00 0.00 0.01 0.01 0.01 0.02 0.02 0.02 0.02 0.03 0.03 0.04 0.04 0.05 0.05 0.06 0.05 0.05 0.04 0.03
0.02 0.03 0.05 0.04 0.03 0.02 0.02 0.02 0.02 0.02 0.02 0.02 0.01 0.01 0.01 0.00 0.00 0.01 0.01 0.01 0.01 0.01 0.01 0.00 0.00 0.01 0.01 0.01 0.01 0.02 0.02 0.02 0.02 0.02 0.03 0.03 0.04 0.04 0.05 0.06 0.06 0.05 0.04 0.03
0.02 0.03 0.04 0.03 0.03 0.02 0.02 0.01 0.01 0.02 0.02 0.01 0.01 0.01 0.01 0.01 0.01 0.01 0.01 0.01 0.01 0.01 0.01 0.01 0.01 0.01 0.01 0.01 0.01 0.01 0.01 0.01 0.01 0.02 0.02 0.02 0.03 0.03 0.04 0.05 0.06 0.05 0.05 0.04
0.02 0.02 0.02 0.02 0.03 0.02 0.01 0.01 0.01 0.02 0.01 0.01 0.01 0.01 0.01 0.01 0.01 0.01 0.01 0.02 0.01 0.01 0.01 0.01 0.01 0.01 0.01 0.01 0.01 0.01 0.01 0.01 0.01 0.01 0.02 0.02 0.02 0.02 0.03 0.03 0.04 0.05 0.04 0.04
0.02 0.02 0.02 0.01 0.02 0.01 0.01 0.02 0.02 0.02 0.01 0.01 0.01 0.01 0.01 0.01 0.01 0.01 0.01 0.02 0.02 0.01 0.02 0.02 0.02 0.02 0.01 0.01 0.01 0.01 0.01 0.01 0.01 0.01 0.01 0.01 0.01 0.02 0.02 0.02 0.03 0.03 0.03 0.03
0.01 0.02 0.02 0.02 0.01 0.01 0.01 0.01 0.01 0.01 0.02 0.01 0.01 0.01 0.01 0.02 0.02 0.02 0.02 0.02 0.02 0.02 0.02 0.02 0.02 0.01 0.01 0.00 0.00 0.01 0.01 0.01 0.01 0.01 0.01 0.01 0.01 0.01 0.02 0.02 0.02 0.02 0.02 0.02
0.01 0.01 0.01 0.01 0.01 0.00 0.00 0.01 0.01 0.01 0.01 0.01 0.01 0.02 0.02 0.02 0.03 0.02 0.03 0.03 0.02 0.01 0.01 0.01 0.01 0.00 0.00 0.00 0.00 0.01 0.01 0.01 0.01 0.01 0.01 0.02 0.02 0.01 0.01 0.01 0.01 0.02 0.02 0.02
0.01 0.01 0.01 0.01 0.01 0.01 0.01 0.02 0.02 0.02 0.02 0.02 0.03 0.02 0.03 0.02 0.02 0.02 0.02 0.02 0.01 0.01 0.00 0.00 0.00 0.00 0.00 0.01 0.01 0.01 0.01 0.02 0.02 0.02 0.01 0.02 0.03 0.03 0.02 0.02 0.02 0.02 0.02 0.02
MSLP
1023.69 1023.76 1023.90 1024.12 1024.40 1024.72 1025.03 1025.27 1025.39 1025.35 1025.14 1024.79 1024.33 1023.83 1023.33 1022.90 1022.56 1022.31 1022.13 1021.99 1021.84 1021.65 1021.39 1021.06 1020.68 1020.28 1019.88 1019.52 1019.18 1018.86 1018.52 1018.11 1017.59 1016.91 1016.07 1015.07 1013.95 1012.77 1011.61 1010.54 1009.64 1008.97 1008.57 1008.46
1023.88 1023.99 1024.18 1024.46 1024.81 1025.19 1025.54 1025.79 1025.88 1025.77 1025.46 1024.97 1024.36 1023.70 1023.06 1022.52 1022.10 1021.80 1021.62 1021.50 1021.39 1021.25 1021.04 1020.75 1020.39 1020.00 1019.60 1019.22 1018.88 1018.57 1018.25 1017.87 1017.39 1016.77 1015.97 1015.00 1013.88 1012.67 1011.44 1010.29 1009.28 1008.50 1007.99 1007.78
1023.99 1024.14 1024.39 1024.75 1025.18 1025.64 1026.04 1026.31 1026.37 1026.19 1025.75 1025.11 1024.33 1023.50 1022.71 1022.05 1021.56 1021.25 1021.08 1021.01 1020.98 1020.91 1020.76 1020.51 1020.17 1019.77 1019.34 1018.93 1018.55 1018.21 1017.87 1017.51 1017.06 1016.48 1015.73 1014.79 1013.70 1012.49 1011.24 1010.02 1008.93 1008.05 1007.43 1007.13
1024.02 1024.20 1024.52 1024.96 1025.49 1026.04 1026.50 1026.79 1026.81 1026.53 1025.96 1025.15 1024.18 1023.18 1022.24 1021.47 1020.93 1020.61 1020.49 1020.50 1020.56 1020.59 1020.52 1020.33 1020.01 1019.59 1019.12 1018.65 1018.20 1017.79 1017.42 1017.04 1016.60 1016.04 1015.34 1014.46 1013.42 1012.24 1010.99 1009.75 1008.62 1007.66 1006.96 1006.56
1023.93 1024.15 1024.54 1025.08 1025.71 1026.35 1026.87 1027.16 1027.14 1026.76 1026.04 1025.05 1023.90 1022.71 1021.63 1020.77 1020.18 1019.88 1019.82 1019.93 1020.11 1020.26 1020.29 1020.16 1019.87 1019.44 1018.92 1018.36 1017.83 1017.34 1016.89 1016.47 1016.02 1015.49 1014.84 1014.03 1013.05 1011.93 1010.73 1009.51 1008.35 1007.36 1006.59 1006.09
1023.70 1023.97 1024.44 1025.09 1025.82 1026.54 1027.12 1027.42 1027.34 1026.86 1025.99 1024.82 1023.48 1022.13 1020.91 1019.96 1019.34 1019.06 1019.07 1019.29 1019.59 1019.86 1020.00 1019.95 1019.69 1019.24 1018.67 1018.05 1017.42 1016.83 1016.31 1015.83 1015.37 1014.85 1014.25 1013.51 1012.62 1011.59 1010.46 1009.29 1008.15 1007.14 1006.31 1005.74
1023.33 1023.67 1024.23 1024.98 1025.82 1026.63 1027.24 1027.54 1027.41 1026.83 1025.82 1024.49 1022.98 1021.47 1020.13 1019.10 1018.45 1018.19 1018.27 1018.58 1018.99 1019.38 1019.61 1019.63 1019.40 1018.96 1018.36 1017.66 1016.95 1016.28 1015.68 1015.15 1014.66 1014.16 1013.60 1012.93 1012.14 1011.21 1010.18 1009.08 1007.99 1006.98 1006.12 1005.48
1022.83 1023.26 1023.92 1024.78 1025.71 1026.59 1027.25 1027.54 1027.35 1026.68 1025.55 1024.09 1022.44 1020.81 1019.37 1018.27 1017.59 1017.34 1017.46 1017.83 1018.32 1018.79 1019.10 1019.18 1018.99 1018.55 1017.93 1017.19 1016.42 1015.68 1015.01 1014.43 1013.92 1013.43 1012.91 1012.32 1011.62 1010.80 1009.87 1008.86 1007.83 1006.85 1005.97 1005.26
1022.27 1022.79 1023.55 1024.50 1025.51 1026.44 1027.12 1027.39 1027.17 1026.42 1025.21 1023.65 1021.92 1020.20 1018.69 1017.54 1016.83 1016.57 1016.70 1017.09 1017.62 1018.12 1018.48 1018.59 1018.43 1018.01 1017.38 1016.62 1015.82 1015.04 1014.33 1013.71 1013.18 1012.69 1012.20 1011.67 1011.05 1010.33 1009.49 1008.58 1007.62 1006.67 1005.79 1005.03
1021.70 1022.31 1023.15 1024.17 1025.22 1026.17 1026.84 1027.09 1026.82 1026.03 1024.78 1023.17 1021.40 1019.66 1018.13 1016.96 1016.23 1015.95 1016.05 1016.42 1016.93 1017.43 1017.78 1017.90 1017.76 1017.35 1016.74 1015.99 1015.18 1014.38 1013.65 1013.01 1012.45 1011.95 1011.48 1010.98 1010.42 1009.77 1009.03 1008.19 1007.30 1006.39 1005.52 1004.74
1021.22 1021.89 1022.78 1023.81 1024.85 1025.76 1026.39 1026.59 1026.28 1025.47 1024.20 1022.62 1020.88 1019.17 1017.67 1016.52 1015.79 1015.48 1015.54 1015.87 1016.31 1016.76 1017.07 1017.17 1017.02 1016.63 1016.04 1015.32 1014.52 1013.74 1013.00 1012.34 1011.76 1011.24 1010.75 1010.26 1009.73 1009.13 1008.44 1007.68 1006.85 1005.98 1005.13 1004.34
1020.90 1021.59 1022.47 1023.44 1024.41 1025.22 1025.74 1025.86 1025.50 1024.67 1023.44 1021.92 1020.28 1018.67 1017.27 1016.18 1015.49 1015.17 1015.19 1015.44 1015.80 1016.16 1016.40 1016.46 1016.29 1015.91 1015.35 1014.66 1013.90 1013.13 1012.39 1011.72 1011.11 1010.55 1010.03 1009.52 1008.98 1008.39 1007.75 1007.03 1006.25 1005.43 1004.60 1003.82
1020.77 1021.44 1022.23 1023.08 1023.88 1024.53 1024.89 1024.88 1024.45 1023.62 1022.44 1021.04 1019.54 1018.10 1016.84 1015.88 1015.26 1014.96 1014.95 1015.13 1015.40 1015.65 1015.81 1015.80 1015.61 1015.23 1014.69 1014.04 1013.32 1012.58 1011.85 1011.15 1010.50 1009.89 1009.32 1008.75 1008.18 1007.58 1006.94 1006.26 1005.52 1004.75 1003.96 1003.20
1020.83 1021.41 1022.05 1022.71 1023.28 1023.69 1023.84 1023.67 1023.14 1022.30 1021.19 1019.93 1018.62 1017.39 1016.34 1015.55 1015.04 1014.80 1014.78 1014.90 1015.08 1015.24 1015.30 1015.23 1014.99 1014.61 1014.09 1013.47 1012.79 1012.07 1011.34 1010.63 1009.93 1009.25 1008.60 1007.97 1007.34 1006.71 1006.07 1005.40 1004.70 1003.98 1003.23 1002.51
1021.00 1021.45 1021.90 1022.30 1022.60 1022.72 1022.62 1022.25 1021.62 1020.76 1019.73 1018.62 1017.53 1016.54 1015.73 1015.14 1014.79 1014.63 1014.63 1014.72 1014.82 1014.89 1014.86 1014.71 1014.44 1014.04 1013.53 1012.94 1012.28 1011.58 1010.85 1010.10 1009.35 1008.61 1007.87 1007.16 1006.47 1005.80 1005.15 1004.49 1003.83 1003.15 1002.46 1001.78
1021.17 1021.47 1021.70 1021.83 1021.83 1021.65 1021.29 1020.72 1019.96 1019.08 1018.13 1017.18 1016.31 1015.58 1015.02 1014.66 1014.48 1014.43 1014.47 1014.54 1014.59 1014.57 1014.46 1014.24 1013.91 1013.49 1012.99 1012.40 1011.76 1011.07 1010.32 1009.54 1008.74 1007.92 1007.11 1006.32 1005.57 1004.86 1004.19 1003.54 1002.91 1002.28 1001.64 1001.01
1021.19 1021.34 1021.37 1021.25 1020.96 1020.51 1019.90 1019.14 1018.29 1017.39 1016.52 1015.73 1015.08 1014.59 1014.28 1014.14 1014.12 1014.19 1014.28 1014.35 1014.35 1014.26 1014.07 1013.78 1013.40 1012.94 1012.41 1011.83 1011.18 1010.48 1009.71 1008.89 1008.03 1007.15 1006.27 1005.41 1004.60 1003.86 1003.17 1002.54 1001.95 1001.36 1000.78 1000.19
1020.92 1020.95 1020.81 1020.49 1019.99 1019.31 1018.51 1017.62 1016.70 1015.81 1015.03 1014.39 1013.93 1013.67 1013.58 1013.64 1013.78 1013.94 1014.08 1014.14 1014.10 1013.94 1013.67 1013.31 1012.86 1012.35 1011.79 1011.17 1010.51 1009.78 1008.98 1008.11 1007.19 1006.24 1005.29 1004.38 1003.52 1002.75 1002.06 1001.44 1000.88 1000.35 999.83 999.30
1020.26 1020.22 1019.97 1019.52 1018.88 1018.07 1017.16 1016.20 1015.27 1014.43 1013.75 1013.26 1012.98 1012.91 1013.01 1013.23 1013.49 1013.73 1013.89 1013.94 1013.85 1013.62 1013.27 1012.82 1012.29 1011.71 1011.09 1010.43 1009.72 1008.94 1008.09 1007.16 1006.18 1005.16 1004.15 1003.17 1002.27 1001.47 1000.77 1000.18 999.65 999.17 998.71 998.25
1019.17 1019.11 1018.82 1018.32 1017.63 1016.79 1015.87 1014.92 1014.04 1013.29 1012.73 1012.39 1012.28 1012.37 1012.61 1012.95 1013.29 1013.57 1013.74 1013.75 1013.60 1013.30 1012.86 1012.31 1011.71 1011.05 1010.35 1009.61 1008.83 1007.98 1007.05 1006.05 1004.98 1003.88 1002.79 1001.75 1000.79 999.96 999.25 998.67 998.18 997.76 997.37 996.99
1017.70 1017.64 1017.38 1016.91 1016.26 1015.48 1014.62 1013.77 1013.01 1012.39 1011.98 1011.79 1011.82 1012.04 1012.39 1012.80 1013.19 1013.48 1013.62 1013.59 1013.37 1012.99 1012.46 1011.82 1011.12 1010.37 1009.58 1008.75 1007.87 1006.92 1005.89 1004.78 1003.61 1002.41 1001.22 1000.09 999.07 998.18 997.45 996.87 996.42 996.06 995.75 995.47
1015.94 1015.91 1015.71 1015.32 1014.78 1014.12 1013.41 1012.73 1012.13 1011.69 1011.44 1011.41 1011.57 1011.90 1012.32 1012.77 1013.16 1013.43 1013.54 1013.45 1013.16 1012.69 1012.08 1011.35 1010.55 1009.71 1008.81 1007.87 1006.87 1005.80 1004.64 1003.40 1002.09 1000.76 999.45 998.21 997.09 996.14 995.37 994.78 994.35 994.06 993.85 993.70
1014.02 1014.03 1013.90 1013.62 1013.23 1012.75 1012.24 1011.75 1011.37 1011.12 1011.05 1011.16 1011.45 1011.85 1012.32 1012.78 1013.16 1013.39 1013.44 1013.29 1012.93 1012.39 1011.71 1010.90 1010.02 1009.07 1008.07 1007.02 1005.89 1004.67 1003.36 1001.95 1000.49 999.00 997.53 996.16 994.92 993.88 993.05 992.45 992.05 991.82 991.73 991.73
1012.10 1012.13 1012.07 1011.91 1011.68 1011.39 1011.10 1010.84 1010.67 1010.63 1010.74 1010.99 1011.37 1011.83 1012.32 1012.77 1013.12 1013.31 1013.30 1013.09 1012.67 1012.08 1011.33 1010.46 1009.51 1008.48 1007.38 1006.20 1004.94 1003.57 1002.09 1000.51 998.87 997.20 995.57 994.03 992.67 991.52 990.62 989.99 989.62 989.46 989.49 989.66
1010.29 1010.33 1010.33 1010.28 1010.20 1010.11 1010.03 1009.99 1010.04 1010.18 1010.45 1010.82 1011.28 1011.78 1012.27 1012.69 1012.99 1013.13 1013.07 1012.81 1012.35 1011.71 1010.92 1010.01 1009.00 1007.90 1006.71 1005.43 1004.03 1002.52 1000.87 999.13 997.30 995.46 993.65 991.97 990.47 989.22 988.26 987.60 987.25 987.17 987.32 987.67
1008.69 1008.72 1008.76 1008.82 1008.87 1008.95 1009.06 1009.23 1009.46 1009.77 1010.17 1010.63 1011.14 1011.66 1012.13 1012.51 1012.76 1012.84 1012.73 1012.42 1011.93 1011.26 1010.45 1009.52 1008.47 1007.32 1006.07 1004.70 1003.19 1001.55 999.76 997.86 995.88 993.88 991.93 990.12 988.50 987.17 986.16 985.49 985.17 985.17 985.45 985.96
Thickness
5579 5582 5583 5584 5582 5583 5583 5583 5586 5587 5582 5580 5587 5591 5596 5595 5593 5594 5595 5595 5594 5593 5591 5587 5584 5582 5580 5578 5578 5577 5575 5574 5572 5571 5571 5570 5570 5569 5569 5569 5570 5570 5571 5571
5572 5572 5572 5570 5568 5568 5570 5571 5575 5574 5568 5569 5577 5582 5590 5588 5586 5587 5587 5587 5586 5585 5582 5579 5576 5573 5572 5570 5568 5567 5565 5564 5563 5562 5561 5560 5559 5559 5559 5559 5560 5561 5562 5562
5566 5562 5558 5558 5559 5559 5561 5563 5564 5560 5559 5559 5561 5579 5585 5583 5579 5577 5577 5577 5577 5576 5575 5572 5568 5565 5563 5562 5560 5558 5556 5555 5554 5552 5551 5549 5549 5549 5550 5551 5552 5552 5553 5553
5551 5548 5546 5549 5550 5549 5553 5551 5548 5546 5549 5557 5552 5565 5581 5579 5572 5571 5570 5570 5570 5568 5566 5564 5560 5557 5555 5553 5551 5550 5548 5546 5545 5544 5543 5543 5544 5543 5543 5542 5543 5543 5544 5544
5539 5534 5535 5537 5538 5537 5540 5536 5535 5535 5537 5538 5543 5542 5572 5568 5565 5567 5566 5564 5563 5560 5557 5554 5551 5549 5547 5544 5542 5541 5540 5538 5537 5535 5535 5535 5535 5535 5534 5533 5534 5534 5534 5535
5524 5521 5522 5524 5523 5524 5523 5525 5523 5522 5525 5526 5538 5537 5559 5564 5560 5561 5560 5556 5553 5550 5547 5545 5542 5540 5538 5535 5533 5532 5531 5530 5528 5527 5527 5527 5526 5526 5526 5525 5525 5525 5525 5525
5515 5513 5509 5509 5511 5512 5515 5518 5521 5521 5522 5534 5526 5526 5546 5555 5551 5549 5548 5547 5544 5541 5539 5536 5534 5532 5530 5528 5525 5524 5523 5522 5521 5519 5519 5519 5518 5517 5518 5518 5517 5517 5517 5517
5509 5510 5502 5499 5503 5504 5505 5509 5513 5518 5526 5532 5516 5525 5546 5542 5538 5536 5535 5534 5531 5531 5530 5528 5526 5524 5522 5520 5518 5517 5516 5515 5513 5512 5511 5510 5509 5508 5509 5509 5509 5509 5509 5509
5501 5501 5489 5486 5488 5493 5494 5498 5499 5498 5492 5501 5523 5528 5534 5532 5529 5526 5526 5525 5523 5521 5519 5517 5516 5515 5513 5511 5509 5509 5508 5507 5505 5504 5504 5503 5502 5501 5500 5500 5499 5499 5499 5499
5484 5481 5481 5476 5477 5477 5483 5484 5482 5485 5489 5505 5520 5522 5531 5528 5525 5522 5519 5518 5516 5513 5510 5508 5506 5505 5504 5502 5501 5500 5499 5499 5498 5496 5496 5495 5494 5493 5492 5491 5491 5490 5490 5489
5469 5468 5467 5466 5469 5474 5468 5468 5473 5478 5480 5493 5507 5524 5523 5519 5516 5513 5510 5506 5504 5503 5501 5499 5497 5495 5493 5492 5491 5491 5490 5489 5488 5488 5487 5486 5486 5484 5483 5482 5482 5482 5481 5481
5456 5459 5461 5462 5456 5455 5463 5466 5465 5468 5467 5471 5488 5508 5508 5503 5501 5499 5498 5496 5494 5492 5490 5488 5487 5486 5484 5483 5482 5482 5481 5481 5480 5479 5478 5478 5477 5476 5475 5474 5474 5474 5473 5472
5444 5444 5451 5457 5450 5442 5445 5450 5450 5449 5454 5464 5475 5499 5496 5491 5491 5489 5488 5488 5485 5482 5481 5479 5477 5477 5475 5474 5473 5472 5472 5471 5470 5470 5469 5469 5468 5468 5467 5467 5466 5465 5464 5464
5437 5434 5445 5460 5462 5448 5440 5441 5440 5440 5451 5464 5472 5488 5490 5486 5484 5483 5480 5478 5475 5473 5471 5470 5468 5467 5465 5465 5464 5463 5463 5462 5461 5461 5461 5461 5461 5460 5460 5459 5458 5458 5457 5456
5427 5428 5426 5433 5435 5434 5434 5434 5433 5433 5446 5452 5470 5469 5478 5476 5473 5471 5469 5467 5466 5465 5463 5461 5459 5458 5457 5456 5455 5454 5454 5453 5453 5453 5452 5452 5452 5451 5451 5451 5451 5450 5449 5449
5412 5415 5413 5418 5424 5421 5422 5431 5431 5431 5436 5442 5448 5455 5465 5462 5460 5460 5460 5457 5457 5456 5454 5452 5450 5449 5448 5447 5447 5446 5446 5445 5445 5445 5444 5444 5444 5444 5444 5444 5443 5442 5442 5442
5404 5402 5408 5424 5414 5409 5424 5434 5432 5431 5434 5435 5441 5452 5454 5453 5452 5450 5449 5447 5446 5446 5444 5443 5442 5440 5439 5438 5438 5438 5437 5437 5437 5437 5437 5436 5436 5437 5437 5436 5435 5435 5435 5435
5393 5394 5399 5408 5401 5408 5443 5431 5428 5427 5430 5429 5432 5438 5440 5439 5440 5439 5438 5437 5436 5435 5435 5434 5432 5431 5430 5429 5428 5429 5428 5429 5429 5428 5428 5428 5428 5428 5428 5428 5428 5428 5428 5428
5389 5389 5394 5399 5406 5422 5431 5422 5414 5413 5424 5426 5424 5427 5428 5427 5429 5436 5431 5428 5427 5427 5426 5425 5423 5422 5421 5420 5420 5420 5420 5420 5420 5420 5420 5420 5420 5420 5421 5421 5420 5420 5420 5420
5375 5378 5388 5391 5399 5411 5428 5414 5405 5406 5416 5422 5415 5415 5416 5414 5423 5432 5422 5418 5417 5416 5416 5414 5413 5412 5412 5412 5411 5412 5412 5412 5412 5412 5411 5411 5412 5413 5413 5413 5412 5411 5411 5412
5372 5373 5379 5388 5394 5410 5412 5398 5396 5404 5418 5412 5408 5406 5405 5406 5411 5411 5407 5405 5404 5404 5404 5403 5403 5403 5403 5402 5403 5403 5404 5404 5404 5403 5404 5404 5404 5405 5405 5405 5404 5404 5403 5404
5380 5379 5375 5379 5385 5401 5397 5388 5394 5402 5401 5399 5398 5398 5396 5398 5397 5396 5395 5394 5393 5393 5393 5393 5392 5393 5393 5393 5394 5395 5396 5395 5395 5395 5396 5397 5397 5397 5397 5397 5396 5396 5395 5396
5374 5380 5385 5384 5396 5394 5385 5384 5385 5384 5386 5389 5389 5388 5386 5387 5387 5387 5386 5385 5384 5384 5384 5383 5382 5382 5383 5383 5385 5386 5387 5386 5387 5388 5388 5389 5389 5389 5389 5390 5389 5388 5388 5388
5367 5360 5364 5368 5382 5380 5378 5376 5374 5374 5375 5378 5378 5378 5378 5379 5379 5378 5376 5376 5375 5374 5373 5373 5373 5373 5374 5375 5376 5376 5377 5377 5378 5379 5380 5381 5381 5382 5382 5382 5382 5381 5381 5382
5368 5355 5356 5362 5371 5370 5373 5369 5368 5368 5367 5368 5370 5370 5370 5370 5371 5370 5368 5367 5366 5365 5364 5364 5364 5365 5366 5366 5367 5368 5368 5369 5370 5371 5372 5373 5374 5375 5374 5374 5374 5374 5374 5375
5358 5354 5358 5369 5368 5363 5367 5364 5361 5360 5361 5362 5362 5363 5364 5363 5363 5361 5360 5359 5358 5357 5357 5356 5357 5357 5358 5358 5359 5360 5361 5361 5362 5363 5364 5365 5366 5367 5367 5367 5366 5365 5365 5366